GEFSCGP_500_meanwind_006.txt.gz
Wind_Speed
27 26 26 27 28 28 30 31 31 30 31 33 34 34 37 40 40 39 38 35 31 30 29 28 29 30 30 32 34 37 36 32 29 29 28 26 24 23 22 22 21 22 24 24
28 30 31 31 31 31 31 31 30 29 31 32 32 32 35 39 39 39 40 38 35 33 31 29 29 30 28 30 35 39 37 35 35 35 33 30 27 25 24 24 24 25 26 27
29 30 32 32 33 34 34 33 32 31 32 32 32 32 35 38 39 39 40 40 40 40 39 38 39 37 35 34 35 36 36 38 41 42 38 32 28 25 26 27 27 27 29 29
29 31 32 32 32 34 35 36 36 35 34 35 36 37 37 38 39 41 40 41 40 40 41 41 41 40 37 37 38 38 38 40 41 42 38 32 27 25 28 30 30 30 32 32
24 29 33 32 29 31 31 32 35 33 34 36 40 42 41 41 41 41 41 41 40 39 37 34 33 33 35 38 41 42 40 39 38 34 31 28 27 28 30 31 32 32 33 34
19 24 27 27 26 26 26 28 29 28 29 33 36 40 42 38 38 39 42 43 40 37 33 33 32 31 32 35 39 42 40 39 39 39 36 33 32 32 31 31 33 34 35 36
18 24 25 25 24 24 26 27 26 25 26 27 26 33 38 34 30 31 34 36 36 34 32 32 31 30 31 31 32 34 38 40 41 41 38 35 34 33 33 34 36 38 39 39
11 16 20 22 22 24 26 27 27 26 25 24 24 29 30 28 24 23 26 29 32 33 33 33 32 32 32 32 30 29 32 36 38 38 37 36 36 37 38 39 40 41 41 41
7 10 14 17 21 24 24 25 27 28 28 26 26 28 28 27 24 22 23 25 28 32 34 36 36 33 30 28 29 27 27 28 31 32 35 37 40 41 41 39 40 41 41 40
11 10 11 14 19 23 23 22 24 25 27 26 27 28 28 27 27 27 29 29 30 31 33 36 37 33 29 27 25 25 25 27 30 32 34 35 36 37 38 37 37 37 38 37
23 22 20 20 21 22 20 21 22 22 23 23 24 26 26 25 25 27 31 33 33 33 33 32 30 26 22 21 23 26 28 29 30 32 32 33 33 34 35 35 35 36 36 36
30 30 30 27 26 26 25 24 24 23 21 23 25 27 26 22 23 24 26 28 27 23 23 21 18 17 21 25 28 31 32 32 33 33 32 32 33 33 33 34 35 35 34 33
33 33 32 29 26 26 28 28 26 25 25 26 29 31 28 26 26 27 28 29 29 28 27 27 27 28 29 30 31 32 32 33 34 35 35 35 35 34 33 34 34 33 32 31
30 30 30 27 26 26 26 28 29 29 31 34 35 34 32 31 29 30 32 34 35 35 35 34 33 33 33 33 33 33 32 32 34 35 35 35 36 35 33 32 32 32 30 29
23 23 22 22 25 28 31 31 30 30 30 31 31 31 31 31 33 34 35 36 37 37 36 34 34 34 34 33 33 34 35 33 33 34 35 34 35 34 32 30 30 31 30 28
25 24 21 21 23 28 31 29 30 32 31 28 27 28 29 32 36 38 40 41 40 40 40 40 40 40 39 38 37 36 36 34 33 33 35 34 33 32 30 29 30 30 28 25
21 22 21 20 23 26 32 31 25 23 23 22 23 27 31 36 39 41 41 41 41 41 41 41 41 41 40 39 39 38 37 36 34 33 34 35 34 32 30 29 29 29 27 24
12 12 14 19 22 24 27 29 33 31 27 28 31 35 37 38 37 36 35 34 35 35 36 36 37 37 37 37 37 38 38 37 36 34 34 35 35 34 33 32 31 31 30 28
8 7 8 12 16 19 24 26 26 26 26 28 31 33 33 32 30 29 28 28 28 30 31 32 33 33 33 34 34 35 35 34 33 33 33 34 35 34 33 34 34 35 35 34
11 12 10 12 15 17 17 19 20 19 17 17 18 21 23 23 23 22 23 24 25 26 27 26 25 26 27 27 28 29 30 29 28 28 28 30 32 32 32 33 34 36 38 39
10 11 10 11 13 15 16 16 16 16 17 16 16 17 17 18 19 21 22 23 24 24 25 24 20 19 20 20 20 21 23 25 26 26 26 27 27 28 28 29 32 33 32 33
13 11 11 11 11 12 13 13 14 15 14 14 14 14 15 15 17 18 20 21 22 22 22 20 17 16 17 17 17 17 16 17 19 22 25 26 26 27 27 28 30 33 31 29
9 8 9 8 7 8 9 11 12 12 12 13 13 14 14 14 16 18 20 21 21 20 19 16 14 13 15 17 18 17 15 14 15 17 19 21 23 23 23 23 24 25 26 25
9 8 9 9 4 3 4 6 7 8 9 11 11 12 13 15 17 19 20 20 18 16 15 14 13 13 14 14 15 17 16 15 17 18 19 20 22 24 24 24 22 22 21 21
12 10 10 9 7 4 5 7 9 10 11 12 13 14 16 18 19 19 18 16 15 14 14 13 13 14 16 18 20 21 21 21 22 23 25 26 26 27 27 26 24 24 23 22
15 13 12 11 11 9 7 7 9 10 11 12 13 14 15 16 16 17 16 16 15 15 15 15 16 18 18 19 20 22 24 26 28 30 31 31 30 28 28 28 28 27 27 26

GEFSCGP_500_meanwind_012.txt.gz
Wind_Speed
24 24 24 25 26 27 29 31 33 35 39 42 43 42 41 41 41 40 37 35 32 29 27 26 28 30 31 33 34 36 37 38 37 36 37 38 37 34 32 31 30 30 30 29
27 27 27 27 27 27 28 29 30 32 34 36 37 37 37 37 37 36 36 35 34 33 31 30 30 31 32 34 36 38 39 38 38 38 39 39 39 37 35 33 33 33 33 33
28 29 29 29 29 29 29 28 29 31 32 33 34 34 34 34 34 35 34 34 34 33 32 32 31 31 32 34 37 39 40 39 39 39 40 41 40 39 37 36 35 35 35 36
28 29 29 30 30 31 32 31 31 31 32 32 33 35 36 36 36 35 34 33 31 30 29 29 30 30 32 35 37 40 41 42 42 42 43 43 41 39 38 37 36 35 33 31
29 30 31 32 33 34 34 35 35 36 36 36 37 39 39 40 40 39 36 34 31 30 29 31 32 32 33 33 36 39 41 44 44 43 42 41 39 38 37 36 36 36 31 27
26 30 34 35 36 37 37 38 39 39 40 41 41 42 43 42 42 42 39 36 33 32 33 34 36 36 36 36 37 38 40 42 43 42 39 39 36 35 36 36 37 35 30 28
19 24 27 31 33 36 37 37 37 38 38 39 39 42 45 43 43 42 40 37 35 34 35 36 37 39 40 40 40 39 40 41 40 39 37 37 37 37 37 36 35 33 31 29
16 17 20 23 27 30 32 32 32 33 33 32 33 37 39 39 39 39 39 38 37 36 36 37 38 39 39 38 38 38 39 40 38 35 34 34 35 36 35 35 35 33 33 32
15 15 15 16 18 22 26 28 29 31 31 31 32 32 33 32 32 33 34 34 35 35 34 34 33 32 31 32 33 36 36 34 32 30 29 29 30 30 31 31 32 32 32 32
17 17 17 15 15 16 19 21 25 29 31 31 31 30 30 29 29 29 29 30 31 31 31 31 29 28 27 28 29 30 30 31 31 28 27 27 27 28 29 30 30 31 31 31
22 21 22 21 21 21 22 22 24 27 30 31 32 31 28 28 30 30 30 31 31 31 32 32 32 31 30 29 28 27 27 25 25 24 25 26 26 28 29 30 30 30 30 30
27 27 26 27 27 27 28 28 28 29 29 31 32 33 29 28 28 28 29 29 29 29 29 29 29 29 27 26 24 23 21 21 21 22 24 27 28 30 31 32 32 32 31 31
30 30 31 30 30 31 31 31 31 32 33 33 33 31 29 29 28 26 26 26 26 26 27 26 27 27 26 24 23 22 21 21 23 25 27 29 30 31 32 32 33 34 34 34
29 30 30 30 29 30 30 29 30 32 33 34 35 33 30 29 28 26 26 26 27 28 28 29 29 30 30 29 28 27 27 28 29 31 32 33 33 34 34 34 34 35 36 36
29 30 29 28 28 29 29 27 26 27 29 30 31 32 31 30 28 29 30 30 31 31 31 32 32 33 34 34 33 34 33 33 34 34 35 35 35 36 36 37 37 36 36 37
25 27 27 27 27 28 29 28 26 26 27 28 28 29 27 26 27 28 30 30 31 31 32 33 34 36 36 37 37 38 38 38 38 38 38 38 38 38 39 39 38 37 37 37
16 17 19 21 22 25 25 25 25 25 25 25 25 25 26 27 28 28 28 28 28 30 31 33 35 36 37 38 39 39 39 39 40 41 41 41 41 41 41 40 39 38 38 37
14 15 16 16 17 18 19 20 21 22 23 24 24 24 24 25 26 26 26 26 28 31 32 34 34 35 35 36 36 37 37 38 39 40 41 42 43 43 42 42 40 39 38 37
16 15 15 14 14 14 14 15 16 17 19 21 22 24 25 25 24 24 25 26 28 29 30 30 30 30 31 31 31 32 33 34 36 38 39 40 40 40 40 40 39 38 38 37
17 14 13 13 14 14 14 14 14 13 15 17 18 20 21 21 22 22 23 23 24 25 25 26 26 27 28 28 28 29 29 29 30 31 33 33 34 34 34 34 35 35 35 35
18 15 13 12 13 13 14 14 14 13 14 14 17 18 19 20 20 21 21 21 20 20 21 22 23 24 25 26 26 25 24 23 22 23 24 25 25 26 27 28 29 30 31 32
20 17 15 14 13 11 11 11 12 12 13 13 14 16 18 19 20 20 20 19 18 17 18 20 21 22 23 23 22 21 20 19 18 17 17 18 19 20 22 24 26 27 28 28
22 19 16 14 12 10 8 8 9 10 11 13 14 15 17 18 19 19 19 18 18 19 20 20 21 20 19 19 18 18 17 18 18 17 16 16 17 19 21 23 23 25 26 26
22 21 19 16 14 11 8 7 7 8 11 13 14 15 16 17 18 18 19 20 21 21 20 19 18 17 16 15 15 15 16 16 17 17 17 17 18 20 22 23 23 24 25 26
19 20 19 17 16 14 12 10 8 8 10 11 13 13 14 15 16 17 19 19 19 19 18 17 16 16 15 14 14 14 15 16 18 20 21 22 22 22 24 25 26 27 27 28
15 15 16 15 15 15 13 12 10 9 8 8 9 10 11 12 12 13 14 14 15 15 15 15 15 15 15 15 15 16 17 18 20 22 23 24 26 27 28 29 31 32 33 34

GEFSCGP_500_meanwind_018.txt.gz
Wind_Speed
26 26 27 28 29 30 30 31 33 35 39 39 41 42 43 43 43 43 42 41 39 38 37 37 38 37 37 37 36 36 37 38 38 39 40 41 42 44 44 43 41 38 35 33
27 29 28 27 27 28 29 30 32 35 36 36 39 42 43 43 43 44 44 43 42 41 41 41 40 38 37 36 36 37 38 39 40 42 44 44 44 45 43 43 42 39 36 34
30 30 28 27 27 27 28 29 31 33 34 34 36 38 40 41 42 43 43 43 43 42 41 39 38 36 36 36 36 38 39 42 43 45 46 46 46 47 48 45 44 41 38 36
30 30 29 29 29 28 29 31 31 32 32 32 35 35 36 39 39 40 40 40 40 39 38 37 36 35 36 37 38 40 42 43 45 46 47 47 47 48 48 47 44 43 43 40
27 29 30 30 31 31 33 33 32 33 34 34 36 36 32 39 39 39 38 37 37 37 37 37 37 37 38 40 41 42 44 45 46 48 49 49 49 50 50 50 48 46 43 41
23 26 28 30 32 33 34 34 35 36 37 39 37 38 37 39 41 39 38 37 37 37 37 38 39 40 41 42 43 45 46 47 48 49 50 50 51 51 51 50 48 45 41 38
18 21 24 27 29 32 34 35 36 39 40 40 37 42 41 45 43 41 40 40 40 40 41 41 42 43 44 45 45 47 48 49 50 50 51 51 51 51 50 49 46 42 37 36
17 19 22 23 25 28 31 34 37 39 36 33 40 45 45 47 46 45 45 45 45 45 44 44 44 44 45 45 46 47 48 48 49 50 50 50 50 49 48 46 43 39 35 33
19 22 23 23 24 25 27 29 32 37 38 38 40 44 44 43 45 46 46 46 46 46 46 45 45 45 45 46 46 46 47 46 46 45 45 44 43 43 42 41 39 37 34 31
24 27 29 28 28 28 28 28 29 32 35 37 38 38 39 36 38 40 41 42 42 42 42 42 42 42 43 44 44 43 42 41 39 38 37 36 36 36 36 35 32 31 30 28
29 31 33 33 33 31 31 31 31 33 33 33 35 36 35 32 32 34 35 36 37 37 37 36 36 36 37 37 38 37 37 36 35 35 34 33 33 33 32 31 30 29 28 28
29 32 32 33 36 35 36 35 34 34 34 34 33 35 33 31 31 30 31 31 33 34 35 35 35 34 34 34 35 35 36 36 35 35 34 32 31 30 29 28 28 28 27 27
25 28 29 30 33 34 36 37 38 37 37 36 33 35 35 33 31 30 30 31 32 32 33 34 34 34 34 34 35 35 35 35 34 32 32 30 29 29 28 27 27 28 28 29
19 22 25 27 31 32 35 36 36 37 37 35 34 35 37 35 34 32 31 31 31 32 32 33 33 33 33 34 34 33 33 32 32 31 31 31 31 30 30 30 30 30 31 31
19 18 20 24 28 33 34 34 35 35 35 35 33 34 36 35 34 33 32 32 31 31 32 33 33 32 32 32 32 32 32 32 33 33 34 34 34 35 35 36 35 35 35 35
20 17 17 18 20 22 23 25 28 29 30 31 32 33 32 32 31 32 32 33 32 33 33 32 32 32 32 32 33 34 34 35 35 36 37 37 38 39 39 40 41 41 41 41
20 17 16 15 16 16 16 17 18 20 23 25 27 28 27 28 28 29 30 32 33 33 34 32 32 32 32 32 33 34 35 36 36 37 38 40 41 42 43 44 45 46 46 46
20 17 14 13 13 13 14 12 10 12 14 16 18 20 20 22 24 26 27 29 31 32 32 31 30 30 30 31 32 33 34 35 36 36 38 39 41 42 44 45 47 48 49 49
20 18 14 12 11 12 12 10 9 8 9 10 13 15 16 18 20 21 24 25 25 27 28 27 28 28 29 30 31 31 32 32 32 32 33 35 36 38 40 42 44 45 46 47
20 19 16 12 10 9 10 8 7 7 8 9 10 12 13 14 15 16 18 20 21 22 23 24 25 26 26 27 27 27 27 27 28 29 30 31 32 34 35 36 38 39 40 40
17 17 16 13 11 9 8 6 4 5 7 8 9 10 11 12 14 14 15 16 18 19 20 22 22 23 23 23 23 23 23 24 25 26 27 28 28 29 29 29 30 30 30 30
14 14 14 13 12 10 7 5 3 4 5 7 8 9 11 12 13 14 15 16 17 18 19 20 20 20 20 20 20 21 22 22 23 23 23 24 23 23 22 22 22 22 22 23
12 12 11 11 11 10 9 6 4 3 4 5 7 8 10 11 12 13 14 14 15 15 16 17 18 18 18 19 19 20 20 20 20 20 19 19 19 19 19 19 19 19 20 20
13 11 10 8 8 8 8 7 6 5 4 4 5 5 6 7 8 9 9 10 10 11 12 13 14 16 17 17 18 18 17 17 17 17 17 17 17 18 19 19 20 20 21 22
16 14 12 9 7 6 6 6 5 5 5 5 5 6 5 5 5 5 5 5 6 7 8 10 11 12 13 14 15 16 16 16 16 17 17 18 19 20 21 22 22 23 24 25
19 17 15 13 11 8 7 6 5 4 4 4 5 6 7 7 7 7 6 5 5 4 5 6 8 9 11 13 14 15 16 17 18 19 20 21 21 22 23 24 25 25 26 27

GEFSCGP_500_meanwind_024.txt.gz
Wind_Speed
24 23 22 21 21 22 22 24 24 21 19 25 29 30 29 31 34 36 38 37 37 39 39 38 37 37 36 36 36 37 38 38 39 38 38 37 36 35 35 35 36 37 38 40
25 22 22 25 27 28 28 30 28 24 22 26 32 32 30 31 33 36 40 44 42 39 37 36 37 39 40 39 39 40 41 41 41 41 40 38 37 36 37 38 39 40 41 42
27 22 28 31 30 29 28 28 28 28 25 27 32 36 35 34 37 41 44 46 48 47 44 41 42 42 43 43 42 42 42 42 42 41 40 39 39 38 38 39 40 42 43 44
29 29 33 32 30 28 26 22 24 27 27 28 28 31 31 30 37 43 47 48 49 49 47 46 45 43 44 44 44 43 43 42 41 41 40 40 40 40 41 42 43 44 45 46
25 29 32 32 29 28 26 26 28 30 32 34 32 31 28 24 30 38 42 43 43 45 46 45 44 43 43 44 44 44 43 41 40 40 39 40 40 41 42 44 45 46 47 48
18 23 25 27 28 30 31 33 36 36 35 37 35 34 34 29 32 40 44 42 41 41 41 40 41 42 42 43 43 43 42 41 40 40 40 41 42 43 45 46 47 48 49 49
10 13 15 18 21 25 28 31 34 35 35 38 32 31 32 35 41 46 46 45 42 39 35 35 37 39 41 41 41 41 42 42 42 42 43 43 45 46 47 48 49 49 49 49
10 11 13 16 19 20 22 27 32 34 33 32 28 32 37 42 46 48 50 50 50 49 46 43 42 41 42 42 42 42 43 44 45 45 46 47 48 48 49 49 50 49 48 47
15 15 17 20 22 23 24 26 29 35 38 39 38 38 41 42 45 49 52 52 52 53 52 50 48 46 46 45 45 45 46 47 48 48 49 49 49 49 49 49 48 47 45 43
17 19 19 23 25 27 29 30 32 36 40 41 40 37 43 47 47 46 47 52 53 54 52 51 50 49 48 48 48 48 49 50 50 50 50 49 49 48 48 47 44 42 41 39
16 18 17 21 26 28 31 32 34 37 40 42 42 39 43 46 47 49 48 46 48 49 48 48 47 46 47 47 48 49 49 49 49 49 48 47 46 45 43 41 40 38 38 37
15 16 17 19 22 28 32 34 36 38 40 42 42 41 41 42 47 50 50 49 46 42 41 41 41 41 42 42 43 44 45 45 45 44 43 42 41 39 38 37 37 37 36 34
14 15 16 16 19 25 29 33 37 41 42 42 41 40 38 39 42 44 45 44 42 38 37 36 36 37 38 39 39 40 41 42 41 40 39 38 37 37 36 36 36 36 35 33
14 16 17 18 19 22 27 31 35 37 41 43 41 39 38 40 40 39 38 36 34 33 34 34 35 35 36 37 38 39 39 39 40 39 39 38 37 37 36 36 35 35 35 34
15 16 18 19 19 20 22 24 27 31 34 37 36 36 35 34 35 36 35 33 31 29 30 32 34 35 36 37 38 39 39 39 39 39 38 38 37 37 36 36 36 37 37 37
17 17 19 19 20 21 22 22 24 26 29 31 32 31 32 34 33 33 34 34 32 30 29 30 32 33 34 35 37 38 38 38 38 38 38 37 36 36 36 37 37 38 39 40
18 18 19 19 20 20 19 21 22 23 23 25 26 25 26 28 29 29 29 29 28 27 27 28 30 32 33 34 34 36 37 37 37 38 37 37 37 36 37 37 38 39 40 41
18 18 18 18 19 19 22 20 20 20 20 19 19 19 19 21 22 23 23 24 24 24 25 27 28 29 30 32 32 33 35 35 35 36 36 35 35 35 36 37 38 39 40 41
18 17 17 17 17 19 21 20 18 17 17 16 16 16 16 17 18 20 21 21 22 22 23 24 24 25 26 28 29 30 31 31 32 32 32 32 32 33 34 34 35 36 37 38
18 18 17 17 17 18 19 18 18 17 16 16 16 16 16 17 18 19 19 20 21 22 21 21 21 22 22 23 25 26 26 26 27 27 27 28 28 29 29 30 32 33 34 35
22 19 18 17 17 17 18 18 17 17 17 17 17 16 17 17 17 18 18 18 19 20 19 19 19 19 19 19 19 20 21 22 22 22 22 22 24 25 27 28 30 31 32 32
24 22 20 19 18 19 17 17 16 16 16 16 16 16 16 15 15 15 16 16 17 16 16 16 16 17 17 17 17 18 18 18 18 18 19 21 23 24 26 27 28 29 29 29
25 23 22 21 21 20 18 18 17 16 15 14 14 14 14 14 13 13 13 13 13 13 12 12 13 13 14 14 15 15 15 15 16 17 19 21 22 23 24 24 25 25 26 26
27 27 25 22 21 22 21 19 18 17 16 14 13 12 12 12 12 11 11 11 10 9 9 9 9 9 10 11 12 13 14 15 16 17 18 19 20 21 22 23 24 25 26 27
26 29 27 23 22 23 22 21 20 19 17 16 15 14 13 12 12 11 11 10 9 8 7 6 6 7 7 8 9 11 12 13 14 15 17 18 20 21 22 24 25 26 27 28
23 27 29 27 25 25 23 23 22 20 19 18 18 17 16 15 13 12 11 10 9 8 7 7 6 6 6 7 8 9 11 12 14 15 16 18 19 20 22 24 25 27 28 29

GEFSCGP_500_meanwind_030.txt.gz
Wind_Speed
21 21 20 20 21 22 25 27 29 30 28 29 31 34 32 30 33 35 38 39 40 41 41 40 37 38 39 37 34 36 35 35 35 34 34 33 33 32 32 31 31 30 30 30
23 24 24 24 25 25 26 27 27 26 24 26 28 28 27 29 30 33 37 40 41 43 42 39 38 37 37 35 35 36 37 37 37 36 36 36 35 35 34 33 33 32 31 31
25 26 28 28 29 29 28 27 27 27 26 27 29 27 26 27 30 34 39 41 43 44 44 43 42 40 38 38 36 37 38 39 39 39 38 37 36 36 36 35 34 33 32 32
23 26 29 30 31 30 29 28 29 30 29 29 30 32 30 31 33 37 40 43 44 44 45 44 43 41 39 38 37 38 40 40 40 39 37 35 36 35 35 35 34 33 32 32
20 24 27 29 29 30 31 31 32 33 33 32 33 37 35 36 39 41 42 44 45 45 44 43 42 41 40 37 36 36 38 39 38 36 34 34 34 33 34 33 31 31 31 31
13 18 22 24 26 29 30 31 32 33 34 35 33 38 40 40 42 44 45 45 45 45 44 44 43 43 41 40 38 36 34 33 32 31 31 32 32 32 32 30 30 31 32 34
6 9 12 15 18 21 24 25 27 29 31 33 32 36 40 40 43 45 47 47 47 47 47 46 45 44 42 41 40 38 36 33 31 30 30 31 31 31 31 31 31 33 34 36
7 9 11 13 15 16 18 21 23 25 26 26 28 33 36 39 41 43 44 46 48 49 50 49 47 47 47 47 45 43 41 39 35 34 34 34 33 33 33 34 35 36 37 38
8 8 12 14 16 18 19 22 25 28 30 30 29 29 33 36 40 42 44 46 47 50 51 52 51 48 50 49 47 46 45 43 41 39 38 37 37 37 37 37 37 39 39 40
8 9 10 13 16 18 20 21 24 28 33 35 35 34 36 38 41 44 45 47 49 50 52 53 54 52 51 50 49 49 49 49 46 43 40 39 39 39 39 39 40 40 41 41
10 10 9 13 16 18 20 21 24 26 29 33 36 36 35 39 42 45 47 50 52 52 52 53 54 53 49 49 48 48 48 48 46 43 40 39 38 38 39 40 39 38 38 37
13 13 13 15 17 18 19 21 23 26 28 30 35 37 35 37 40 43 45 47 49 50 50 48 48 48 46 45 42 42 43 43 43 41 39 37 36 36 37 36 35 35 34 33
16 16 17 18 20 20 21 22 24 25 27 29 32 33 34 35 37 38 40 41 42 42 40 38 37 35 35 36 36 36 37 38 38 37 36 35 34 34 34 34 35 34 33 33
18 18 19 20 22 23 23 24 25 26 28 29 29 29 28 31 31 31 32 32 31 31 32 29 28 28 28 29 30 30 32 33 34 35 34 34 34 34 34 34 34 34 34 34
22 21 21 21 23 24 24 24 26 27 27 27 26 26 26 28 28 26 25 23 23 21 22 22 24 24 25 26 28 29 30 31 33 34 34 34 34 34 34 34 33 33 33 34
27 26 25 24 25 25 24 25 26 25 25 25 25 24 25 25 24 21 19 17 16 18 18 18 19 21 22 24 26 28 30 31 32 33 33 34 34 33 33 33 33 33 33 33
31 30 29 28 28 27 26 25 25 24 23 23 23 22 21 21 21 19 17 15 14 14 15 17 19 21 23 25 27 28 29 30 31 31 32 32 32 32 32 32 32 33 33 33
31 31 32 31 30 29 27 25 24 23 22 21 20 20 19 19 19 19 17 16 15 15 15 17 19 21 23 24 26 27 28 28 28 29 29 30 30 32 32 32 31 31 32 31
28 31 32 32 32 30 27 26 23 22 20 20 20 19 18 17 17 18 17 16 16 15 15 16 17 18 20 21 23 24 24 24 25 25 25 26 27 27 27 27 26 26 26 26
25 27 29 29 31 30 26 25 22 22 20 20 19 18 17 16 16 17 17 17 16 16 16 16 16 16 17 17 18 19 20 20 20 21 21 22 22 22 22 21 20 20 21 22
24 24 25 27 30 31 28 27 25 23 22 21 20 19 18 17 17 17 17 17 16 15 15 15 14 14 14 14 15 15 16 16 16 17 17 16 16 16 15 15 16 17 19 20
24 25 25 26 29 29 30 31 28 26 23 22 21 20 19 18 17 17 17 17 16 15 14 12 11 11 11 11 12 12 12 12 12 12 12 12 12 12 12 13 15 16 18 19
24 25 26 26 27 28 31 31 30 28 25 23 23 22 20 18 17 17 17 16 15 14 13 11 10 10 9 9 9 9 10 10 10 10 10 10 11 11 11 13 14 15 16 18
22 24 25 25 25 28 29 31 31 29 26 25 24 23 21 20 19 18 17 16 15 14 13 11 10 9 7 6 6 6 7 8 8 9 9 9 9 10 11 12 13 14 15 17
23 23 23 23 22 24 25 27 29 29 28 26 26 25 24 22 20 20 19 18 17 15 14 12 11 9 8 7 5 5 5 6 7 8 8 9 9 9 10 11 13 14 16 18
25 24 24 22 22 23 22 23 26 27 27 26 26 25 25 24 22 21 21 20 19 18 16 15 13 12 10 9 8 7 7 7 7 8 9 9 10 10 11 12 13 15 17 19

GEFSCGP_500_meanwind_036.txt.gz
Wind_Speed
17 19 21 22 25 27 30 32 34 35 38 42 44 45 45 44 43 43 43 43 42 40 39 38 37 36 35 34 34 34 34 35 37 38 38 38 40 40 40 41 40 38 36 34
21 22 22 22 23 24 25 26 27 28 31 34 36 38 39 40 40 41 40 40 39 39 39 38 38 37 35 35 35 35 36 37 38 38 39 41 42 44 44 44 43 41 39 37
23 24 24 25 25 26 27 27 28 28 28 30 31 31 32 34 35 37 37 36 36 36 37 37 38 37 35 35 34 34 36 38 38 37 39 41 44 45 45 45 45 45 43 41
23 24 25 26 27 28 29 29 30 30 29 30 31 32 31 32 34 35 35 35 35 36 37 38 38 38 38 38 36 37 38 39 40 40 41 42 43 42 43 44 44 43 42 41
22 24 25 26 27 27 28 29 30 30 30 30 31 34 34 33 35 36 37 38 38 39 40 41 41 42 42 42 41 40 41 41 42 42 43 43 43 42 42 42 42 41 40 38
17 20 21 23 24 26 27 27 28 29 30 31 30 32 34 33 34 37 40 42 43 44 45 46 47 47 48 47 47 46 46 46 45 46 45 45 44 42 39 35 33 33 34 33
12 14 16 16 18 20 22 23 24 25 26 27 27 29 30 30 32 35 39 43 46 49 50 51 52 52 52 52 51 51 51 51 50 50 48 46 44 40 38 32 30 31 31 30
11 13 14 14 15 16 17 19 21 23 22 20 21 24 25 26 29 32 35 39 43 47 51 53 55 56 56 56 56 56 55 54 53 52 50 47 42 36 33 31 30 31 30 30
10 12 14 14 15 16 16 17 19 22 22 21 20 20 22 25 28 31 33 36 39 42 46 49 52 54 55 55 55 55 54 54 54 53 49 44 39 36 34 33 32 31 31 30
9 10 12 13 15 15 16 16 17 20 22 22 20 19 22 25 27 29 32 35 37 39 42 45 48 51 53 54 54 54 53 53 52 50 47 42 38 36 35 34 34 33 32 33
10 11 12 14 15 16 17 18 19 20 22 24 24 20 24 26 27 29 32 34 36 39 41 43 44 46 47 48 49 50 50 48 46 45 41 40 36 34 34 35 35 33 33 33
12 14 14 16 18 19 19 19 20 22 23 24 27 24 26 27 29 31 32 34 36 37 38 39 39 39 39 40 40 41 42 41 39 37 34 33 34 34 34 34 34 34 34 33
17 19 19 19 21 21 21 22 23 24 25 25 27 25 28 30 30 31 32 33 34 35 35 34 33 33 33 32 32 33 33 33 32 31 31 30 31 32 33 33 33 34 33 32
21 21 22 24 25 26 25 25 26 27 28 28 27 27 27 30 30 30 31 32 32 31 30 28 27 27 26 25 25 26 26 26 27 28 29 28 28 30 32 32 31 32 31 31
23 23 23 24 26 29 28 27 29 30 30 30 28 28 28 29 29 29 29 30 30 28 27 26 24 22 22 22 23 23 23 23 23 25 27 28 28 29 31 31 31 31 31 31
24 25 25 25 26 30 28 27 30 31 31 31 30 28 28 28 28 28 27 27 27 26 25 23 22 20 19 20 20 21 22 22 22 23 26 28 30 30 29 28 29 29 30 30
23 25 25 25 26 28 26 26 29 30 29 29 29 28 28 27 27 26 25 25 25 24 23 22 22 21 19 19 19 20 22 22 22 24 26 27 27 27 28 27 27 28 28 29
23 25 26 26 26 26 25 26 28 29 27 28 28 28 28 27 26 26 25 24 23 23 22 21 21 20 19 18 19 19 20 20 21 23 25 25 25 25 25 26 26 27 27 27
23 24 26 26 27 25 21 24 27 29 25 26 28 28 29 28 27 26 25 24 23 22 21 20 19 19 18 17 17 17 17 17 17 18 20 21 22 22 23 23 23 23 24 24
23 25 26 27 29 27 23 24 26 27 23 24 27 28 29 29 28 27 25 24 23 22 20 19 18 17 16 15 15 14 14 14 14 14 15 16 17 18 18 18 19 19 20 20
25 26 27 28 29 27 27 28 28 28 25 26 27 28 29 28 29 28 26 24 22 21 20 19 17 16 14 14 13 12 11 11 11 11 11 12 13 13 13 13 13 14 14 13
26 28 28 29 29 28 29 30 29 28 28 27 27 28 28 28 28 28 26 23 22 20 19 19 18 16 14 13 12 11 10 9 8 8 8 9 10 10 11 11 11 11 10 11
27 31 32 31 30 29 30 31 31 31 30 29 28 28 28 27 27 27 26 25 22 21 19 18 17 16 14 13 12 11 10 9 8 8 8 8 9 9 10 10 10 9 10 11
29 33 35 33 31 31 32 32 32 33 32 31 30 30 30 29 28 27 27 25 24 22 21 19 18 17 15 14 12 11 10 9 8 8 7 8 8 9 9 10 10 11 11 11
34 38 37 34 32 32 32 33 34 34 33 32 31 30 29 28 27 27 27 27 26 24 22 21 19 18 17 15 13 12 11 10 9 8 8 8 9 10 10 11 11 11 11 11
38 39 39 38 36 36 34 34 35 35 34 33 32 30 29 28 27 27 28 28 28 25 24 22 21 20 19 17 15 14 13 12 11 10 10 10 10 11 11 12 12 12 12 13